CAPE
622 1219 1906 1975 1871 1908 1692 1366 1611 1856 1939 1965 1614 1465 1172 1088 860 491 167 203 248 511 902 676 542 491 394 345 291 68 19 107 146 118 166 193 5 3 1 0 8 13 157
675 1300 1982 2184 2147 2116 2085 1842 1841 1808 1735 1582 1342 1390 1330 937 578 140 245 226 338 706 668 418 23 248 13 11 128 40 2 0 0 0 0 0 4 2 2 0 13 4 7
802 1392 1550 2137 2093 1899 1988 1794 2003 1961 1812 1552 820 857 639 783 313 454 645 695 456 840 674 263 39 12 89 1 0 0 0 0 0 0 0 0 0 1 3 3 2 4 5
1074 1335 1256 1996 2004 1912 1898 1816 1791 1667 1717 1727 1296 938 737 782 270 574 656 980 999 682 227 16 6 8 13 1 0 0 0 0 0 0 0 0 0 5 4 2 1 1 1
1110 1246 1197 1924 1946 1958 1733 1873 1603 1710 1517 1438 1457 1393 1366 904 400 390 819 1214 1026 762 279 2 2 12 7 5 2 1 0 0 0 0 0 0 0 3 6 4 2 4 2
1144 1186 1417 1809 1892 1746 1628 1652 1615 1482 1346 1423 1138 1258 1158 1161 701 370 979 1222 954 648 113 0 3 11 108 25 0 0 0 0 0 0 0 0 0 8 8 7 7 6 4
1099 1090 1420 1810 1857 1757 1471 1305 1255 1296 1442 1323 1204 981 992 1037 842 866 865 972 1076 845 119 0 3 15 5 1 0 0 0 0 0 0 0 0 0 7 8 7 7 6 4
910 993 1231 1192 1431 1702 1651 1528 1331 1067 721 1159 1457 1378 1161 936 1159 934 962 871 1080 745 188 0 1 3 0 1 0 0 0 0 0 0 0 0 4 5 6 4 3 3 5
425 629 913 1057 832 541 604 585 515 506 505 285 1037 1191 1156 825 749 856 869 834 701 727 569 128 2 0 0 1 0 0 0 0 0 0 0 0 12 3 2 0 0 0 1
121 283 521 500 323 216 205 144 176 81 81 98 274 807 702 621 525 512 508 551 417 139 536 487 115 4 7 1 0 0 0 0 0 0 0 0 7 4 0 0 0 0 0
134 275 160 176 156 105 119 65 71 60 38 10 160 490 741 440 320 262 193 149 150 115 113 654 397 131 32 0 0 0 0 0 0 0 0 0 5 6 0 0 0 0 0
248 140 100 133 145 118 98 87 63 48 54 41 19 180 267 284 276 232 98 74 22 35 55 335 471 354 29 0 0 0 0 0 0 0 0 0 27 14 17 0 0 0 0
5 346 132 120 160 157 129 102 59 48 15 21 46 23 78 146 175 219 109 50 3 0 27 92 116 122 16 0 0 0 0 0 0 0 0 0 17 20 16 14 0 17 13
7 22 84 112 111 151 131 94 63 48 24 14 4 1 40 150 169 209 165 152 171 17 180 152 76 52 3 0 0 0 0 0 0 0 0 0 11 72 44 39 31 28 26
3 28 76 115 123 119 137 112 95 68 43 12 17 7 105 124 165 185 182 179 137 173 67 150 65 38 23 0 0 0 0 0 0 0 0 0 0 86 193 66 56 51 59
0 42 47 92 116 123 140 144 107 87 15 8 1 0 64 85 108 172 176 145 135 116 132 65 75 47 16 0 0 0 0 0 0 0 0 0 0 0 91 216 158 109 75
0 0 27 12 7 10 1 4 2 0 0 0 0 0 6 66 66 99 151 156 148 116 91 62 86 82 0 0 0 0 0 0 0 0 0 0 0 0 3 35 341 196 123
0 0 0 0 11 0 6 0 0 0 0 0 0 0 0 14 42 55 88 98 49 45 80 23 32 104 8 0 0 0 0 0 0 0 0 0 0 0 0 5 113 358 253
0 0 0 0 20 1 9 0 0 0 0 0 0 0 0 0 17 36 30 66 69 37 36 59 6 75 43 0 0 0 0 0 0 0 0 0 0 0 2 0 0 45 144
0 0 5 17 45 27 0 0 0 0 0 0 0 0 1 0 0 22 35 77 54 59 5 1 9 99 60 19 0 0 0 0 0 0 0 0 0 0 8 2 0 0 12
128 92 71 98 90 73 34 0 6 3 2 0 0 1 2 3 3 20 59 85 82 77 9 0 1 64 93 14 0 0 0 0 0 0 0 13 17 22 23 12 0 0 0
213 203 177 181 154 118 73 27 13 0 0 2 1 0 3 22 32 120 94 101 64 62 28 3 2 0 50 23 15 1 11 4 3 20 12 26 41 41 33 28 0 0 2
198 190 179 186 124 138 110 77 56 53 2 1 0 5 18 27 43 38 44 75 87 63 23 7 6 61 1 11 68 40 50 22 36 50 52 56 62 49 62 49 17 0 0
109 83 91 137 69 58 32 56 196 79 6 13 0 2 14 24 24 44 75 32 18 24 5 3 26 72 60 74 80 53 66 56 44 38 52 64 68 88 96 77 57 20 19
170 149 104 96 57 17 19 94 76 70 51 3 2 4 15 9 20 22 33 26 16 4 43 27 78 80 100 120 90 83 115 114 89 69 61 69 70 101 105 115 75 48 38
67 43 93 67 93 73 72 45 45 72 26 5 37 25 27 33 33 44 13 9 34 60 41 35 70 71 111 151 173 114 128 88 77 72 82 46 30 20 33 74 54 50 46
CIN
-165 -81 -7 -0 -0 -0 -1 -0 -0 -0 -0 -0 -0 -0 -0 -0 -3 -49 -190 -150 -112 -58 -13 -39 -75 -93 -113 -112 -125 -239 -93 -198 -171 -207 -148 -138 -0 -0 -0 -0 -6 -96 -107
-155 -56 -8 -0 -0 -0 -0 -0 -0 -0 -0 -0 -0 -0 -0 -1 -28 -185 -134 -144 -90 -29 -50 -86 -324 -147 -307 -21 -190 -253 -0 -0 -0 -0 -0 -0 -1 -0 -0 -0 -0 -1 -0
-128 -33 -19 -1 -0 -1 -0 -0 -0 -0 -0 -0 -8 -4 -20 -8 -94 -54 -22 -28 -76 -17 -52 -122 -271 -0 -221 -0 -0 -0 -0 -0 -0 -0 -0 -0 -0 -0 -0 -0 -0 -0 -0
-67 -34 -33 -0 -0 -0 -0 -0 -0 -0 -0 -0 -0 -0 -15 -13 -114 -30 -25 -2 -5 -34 -149 -182 -0 -0 -102 -0 -0 -0 -0 -0 -0 -0 -0 -0 -0 -0 -0 -0 -0 -0 -0
-54 -33 -34 -0 -0 -0 -0 -0 -0 -0 -0 -0 -0 -0 -1 -1 -58 -60 -5 -0 -2 -20 -120 -0 -0 -227 -0 -0 -0 -0 -0 -0 -0 -0 -0 -0 -0 -0 -0 -0 -0 -0 -0
-24 -11 -6 -2 -0 -0 -0 -0 -0 -0 -0 -0 -4 -1 -1 -0 -1 -60 -0 -0 -4 -29 -194 -0 -0 -6 -166 -80 -0 -0 -0 -0 -0 -0 -0 -0 -0 -0 -0 -0 -0 -0 -0
-9 -10 -4 -2 -1 -0 -0 -0 -0 -0 -0 -0 -0 -0 -0 -0 -0 -4 -2 -1 -0 -11 -176 -0 -0 -34 -0 -0 -0 -0 -0 -0 -0 -0 -0 -0 -0 -0 -0 -0 -0 -0 -0
-36 -18 -4 -3 -3 -0 -0 -0 -0 -0 -0 -0 -0 -0 -0 -0 -0 -6 -0 -4 -1 -16 -158 -0 -0 -22 -0 -0 -0 -0 -0 -0 -0 -0 -0 -0 -0 -0 -0 -0 -0 -0 -0
-74 -37 -9 -1 -3 -16 -13 -12 -11 -7 -8 -62 -0 -0 -0 -2 -12 -1 -3 -2 -14 -16 -37 -159 -43 -0 -0 -0 -0 -0 -0 -0 -0 -0 -0 -0 -0 -0 -0 -0 -0 -0 -0
-90 -54 -40 -34 -31 -26 -20 -30 -16 -115 -141 -168 -80 -2 -7 -11 -20 -23 -16 -11 -16 -129 -26 -28 -149 -44 -7 -0 -0 -0 -0 -0 -0 -0 -0 -0 -1 -0 -0 -0 -0 -0 -0
-52 -42 -68 -75 -45 -47 -42 -26 -7 -3 -4 -6 -119 -9 -1 -18 -31 -60 -62 -74 -85 -93 -146 -10 -38 -136 -21 -0 -0 -0 -0 -0 -0 -0 -0 -0 -0 -0 -0 -0 -0 -0 -0
-9 -40 -39 -79 -54 -74 -54 -49 -16 -4 -0 -2 -131 -95 -39 -52 -55 -76 -95 -56 -34 -137 -28 -39 -25 -34 -22 -0 -0 -0 -0 -0 -0 -0 -0 -0 -0 -0 -0 -0 -0 -0 -0
-31 -3 -41 -38 -38 -53 -56 -45 -22 -16 -22 -2 -0 -43 -79 -140 -77 -67 -107 -11 -1 -0 -34 -41 -23 -109 -18 -0 -0 -0 -0 -0 -0 -0 -0 -0 -6 -0 -0 -4 -0 -5 -7
-31 -51 -30 -41 -55 -45 -36 -33 -27 -25 -23 -49 -13 -25 -170 -97 -148 -89 -95 -88 -42 -3 -30 -41 -22 -25 -33 -0 -0 -0 -0 -0 -0 -0 -0 -0 -23 -0 -0 -1 -2 -3 -1
-75 -83 -54 -50 -68 -62 -35 -31 -33 -32 -30 -44 -51 -63 -134 -146 -96 -82 -149 -57 -8 -15 -14 -26 -17 -42 -82 -0 -0 -0 -0 -0 -0 -0 -0 -0 -0 -23 -28 -4 -3 -0 -0
-0 -63 -46 -43 -54 -44 -46 -39 -43 -38 -18 -21 -29 -0 -105 -73 -73 -96 -67 -53 -5 -0 -0 -18 -20 -22 -56 -0 -0 -0 -0 -0 -0 -0 -0 -0 -0 -0 -46 -26 -60 -4 -2
-0 -0 -64 -50 -73 -105 -7 -6 -6 -0 -0 -0 -0 -0 -32 -78 -62 -41 -49 -35 -46 -0 -1 -38 -11 -23 -0 -0 -0 -0 -0 -0 -0 -0 -0 -0 -0 -0 -64 -34 -6 -51 -8
-0 -0 -0 -0 -107 -0 -113 -0 -0 -0 -0 -0 -0 -0 -0 -103 -57 -35 -15 -34 -67 -37 -2 -23 -8 -15 -76 -0 -0 -0 -0 -0 -0 -0 -0 -0 -0 -0 -0 -105 -36 -7 -37
-0 -0 -0 -0 -158 -10 -77 -0 -0 -0 -0 -0 -0 -0 -0 -0 -78 -40 -36 -14 -22 -45 -25 -0 -0 -9 -85 -0 -0 -0 -0 -0 -0 -0 -0 -0 -0 -0 -7 -0 -8 -68 -56
-0 -0 -231 -234 -121 -83 -0 -0 -0 -0 -0 -0 -0 -0 -0 -0 -0 -13 -1 -3 -0 -27 -51 -2 -0 -8 -34 -142 -0 -0 -0 -0 -0 -0 -0 -0 -0 -0 -47 -18 -0 -0 -71
-141 -92 -216 -120 -76 -66 -80 -0 -62 -0 -0 -0 -0 -1 -0 -0 -43 -36 -1 -0 -0 -0 -31 -0 -1 -12 -14 -124 -0 -0 -0 -0 -0 -0 -0 -76 -62 -51 -41 -56 -0 -0 -0
-112 -121 -130 -91 -69 -66 -75 -63 -43 -0 -0 -22 -6 -1 -8 -44 -28 -8 -2 -1 -3 -0 -2 -15 -0 -0 -37 -109 -64 -18 -78 -44 -27 -117 -95 -80 -63 -29 -37 -24 -0 -22 -87
-91 -107 -100 -65 -62 -40 -37 -28 -26 -23 -0 -0 -0 -16 -46 -26 -55 -10 -0 -0 -0 -0 -0 -0 -5 -18 -54 -150 -46 -37 -16 -59 -115 -111 -95 -80 -63 -46 -33 -29 -39 -0 -0
-90 -89 -85 -38 -95 -106 -85 -46 -0 -9 -5 -30 -0 -1 -8 -13 -33 -36 -4 -0 -19 -0 -1 -0 -29 -26 -85 -63 -40 -65 -28 -42 -78 -77 -98 -80 -54 -27 -20 -16 -25 -24 -49
-16 -4 -14 -24 -44 -73 -75 -17 -13 -4 -0 -0 -1 -0 -25 -21 -42 -20 -6 -0 -0 -0 -1 -0 -11 -62 -25 -15 -85 -76 -43 -14 -14 -18 -25 -39 -41 -32 -31 -32 -34 -25 -25
-5 -8 -10 -8 -0 -0 -12 -37 -31 -1 -2 -11 -1 -0 -0 -18 -16 -0 -0 -0 -0 -0 -0 -0 -7 -42 -39 -87 -62 -39 -45 -37 -29 -17 -11 -13 -0 -15 -30 -22 -23 -16 -17
Wind_Speed
19 19 25 29 37 36 36 34 31 28 27 26 25 23 23 21 20 18 18 20 19 16 20 18 18 20 20 20 21 nan nan 16 17 20 22 21 nan nan nan nan nan nan 19
24 23 27 26 28 37 40 39 36 32 29 28 26 24 23 20 20 20 19 20 20 18 18 16 nan 19 nan nan 21 nan nan nan nan nan nan nan nan nan nan nan nan nan nan
28 27 30 31 27 29 36 43 40 37 33 30 28 26 24 23 21 23 20 19 21 21 22 19 nan nan nan nan nan nan nan nan nan nan nan nan nan nan nan nan nan nan nan
28 29 31 34 34 32 29 33 42 41 37 35 30 27 27 27 24 22 24 20 20 24 24 nan nan nan nan nan nan nan nan nan nan nan nan nan nan nan nan nan nan nan nan
30 32 31 34 34 36 39 34 30 36 40 36 35 30 31 31 28 25 25 25 23 25 26 nan nan nan nan nan nan nan nan nan nan nan nan nan nan nan nan nan nan nan nan
34 35 34 36 34 34 36 37 36 31 28 32 37 35 34 32 32 28 26 27 30 29 29 nan nan nan 23 nan nan nan nan nan nan nan nan nan nan nan nan nan nan nan nan
35 34 35 37 37 34 35 36 35 32 31 26 27 32 37 36 34 36 30 27 33 33 31 nan nan nan nan nan nan nan nan nan nan nan nan nan nan nan nan nan nan nan nan
35 36 38 37 37 37 34 35 37 37 35 32 30 27 31 35 37 41 36 30 34 37 33 nan nan nan nan nan nan nan nan nan nan nan nan nan nan nan nan nan nan nan nan
41 42 43 45 46 46 46 46 45 47 46 42 32 30 30 31 37 38 42 35 33 36 37 32 nan nan nan nan nan nan nan nan nan nan nan nan nan nan nan nan nan nan nan
47 45 38 41 43 45 42 46 45 nan nan nan 39 34 34 34 33 37 40 39 37 36 36 35 31 nan nan nan nan nan nan nan nan nan nan nan nan nan nan nan nan nan nan
48 48 47 40 38 39 41 nan nan nan nan nan 43 37 34 35 36 39 41 40 41 36 33 36 34 30 nan nan nan nan nan nan nan nan nan nan nan nan nan nan nan nan nan
48 48 48 49 43 39 nan nan nan nan nan nan nan 40 38 36 36 38 nan nan nan nan nan 35 38 33 nan nan nan nan nan nan nan nan nan nan nan nan nan nan nan nan nan
nan 50 49 48 49 44 47 48 nan nan nan nan nan nan nan 42 40 39 40 nan nan nan nan nan 39 39 nan nan nan nan nan nan nan nan nan nan nan nan nan nan nan nan nan
nan nan nan 47 50 50 47 nan nan nan nan nan nan nan nan 41 40 41 38 42 46 nan 42 41 nan nan nan nan nan nan nan nan nan nan nan nan nan nan nan nan nan nan nan
nan nan nan 51 47 52 44 46 nan nan nan nan nan nan 40 37 38 42 40 42 45 47 nan 44 nan nan nan nan nan nan nan nan nan nan nan nan nan nan 20 nan nan nan nan
nan nan nan nan 50 50 45 47 48 nan nan nan nan nan nan nan 40 42 44 42 45 47 45 nan nan nan nan nan nan nan nan nan nan nan nan nan nan nan nan 21 25 26 nan
nan nan nan nan nan nan nan nan nan nan nan nan nan nan nan nan nan nan 41 43 44 47 nan nan nan nan nan nan nan nan nan nan nan nan nan nan nan nan nan nan 25 27 29
nan nan nan nan nan nan nan nan nan nan nan nan nan nan nan nan nan nan nan nan nan nan nan nan nan 56 nan nan nan nan nan nan nan nan nan nan nan nan nan nan 28 31 33
nan nan nan nan nan nan nan nan nan nan nan nan nan nan nan nan nan nan nan nan nan nan nan nan nan nan nan nan nan nan nan nan nan nan nan nan nan nan nan nan nan nan 38
nan nan nan nan nan nan nan nan nan nan nan nan nan nan nan nan nan nan nan nan nan nan nan nan nan nan nan nan nan nan nan nan nan nan nan nan nan nan nan nan nan nan nan
62 nan nan nan nan nan nan nan nan nan nan nan nan nan nan nan nan nan nan nan nan nan nan nan nan nan nan nan nan nan nan nan nan nan nan nan nan nan nan nan nan nan nan
58 60 55 52 52 53 nan nan nan nan nan nan nan nan nan nan nan 44 nan 51 nan nan nan nan nan nan nan nan nan nan nan nan nan nan nan nan nan nan nan nan nan nan nan
58 55 54 50 51 47 44 nan nan nan nan nan nan nan nan nan nan nan nan nan nan nan nan nan nan nan nan nan nan nan nan nan nan nan nan nan nan nan nan nan nan nan nan
50 nan nan 51 nan nan nan nan 36 nan nan nan nan nan nan nan nan nan nan nan nan nan nan nan nan nan nan nan nan nan nan nan nan nan nan nan nan nan nan nan nan nan nan
38 41 43 nan nan nan nan nan nan nan nan nan nan nan nan nan nan nan nan nan nan nan nan nan nan nan 57 64 nan nan 62 67 nan nan nan nan nan 46 40 39 nan nan nan
nan nan nan nan nan nan nan nan nan nan nan nan nan nan nan nan nan nan nan nan nan nan nan nan nan nan 70 82 84 84 80 nan nan nan nan nan nan nan nan nan nan nan nan
Wind_Direction
271 281 289 275 266 273 273 272 268 265 267 272 281 286 295 296 295 299 304 309 309 310 301 295 297 300 300 305 303 nan nan 281 275 262 250 253 nan nan nan nan nan nan 277
270 274 289 286 283 271 270 271 268 266 266 269 273 279 284 290 295 293 296 305 310 309 298 289 nan 293 nan nan 304 nan nan nan nan nan nan nan nan nan nan nan nan nan nan
265 269 278 281 282 281 270 267 267 266 267 266 271 277 281 284 294 296 292 298 308 303 295 293 nan nan nan nan nan nan nan nan nan nan nan nan nan nan nan nan nan nan nan
267 260 265 277 278 279 282 275 267 267 266 268 267 271 275 279 285 293 291 289 292 294 289 nan nan nan nan nan nan nan nan nan nan nan nan nan nan nan nan nan nan nan nan
262 264 263 273 275 278 279 279 284 276 269 266 270 270 273 278 279 286 290 285 286 284 288 nan nan nan nan nan nan nan nan nan nan nan nan nan nan nan nan nan nan nan nan
252 258 264 270 273 273 275 279 277 279 284 274 267 270 274 278 283 281 282 281 283 282 285 nan nan nan 294 nan nan nan nan nan nan nan nan nan nan nan nan nan nan nan nan
251 256 259 273 274 271 274 275 277 275 275 277 271 268 272 276 278 279 276 274 287 284 286 nan nan nan nan nan nan nan nan nan nan nan nan nan nan nan nan nan nan nan nan
256 253 254 266 267 272 272 271 270 271 269 262 271 274 270 271 275 279 280 273 281 285 285 nan nan nan nan nan nan nan nan nan nan nan nan nan nan nan nan nan nan nan nan
249 254 254 257 260 258 261 260 260 258 257 251 260 269 273 271 267 274 276 277 279 277 279 281 nan nan nan nan nan nan nan nan nan nan nan nan nan nan nan nan nan nan nan
237 245 260 258 265 257 253 261 259 nan nan nan 257 265 262 264 269 272 270 269 271 279 273 278 278 nan nan nan nan nan nan nan nan nan nan nan nan nan nan nan nan nan nan
245 242 244 251 253 259 260 nan nan nan nan nan 255 259 260 259 262 264 266 264 268 270 272 274 275 272 nan nan nan nan nan nan nan nan nan nan nan nan nan nan nan nan nan
245 245 244 250 245 245 nan nan nan nan nan nan nan 254 255 257 260 266 nan nan nan nan nan 270 270 270 nan nan nan nan nan nan nan nan nan nan nan nan nan nan nan nan nan
nan 247 246 245 247 246 247 253 nan nan nan nan nan nan nan 257 256 256 258 nan nan nan nan nan 259 255 nan nan nan nan nan nan nan nan nan nan nan nan nan nan nan nan nan
nan nan nan 248 247 247 246 nan nan nan nan nan nan nan nan 253 260 263 257 258 256 nan 250 255 nan nan nan nan nan nan nan nan nan nan nan nan nan nan nan nan nan nan nan
nan nan nan 246 249 253 252 252 nan nan nan nan nan nan 255 254 264 265 261 256 256 254 nan 252 nan nan nan nan nan nan nan nan nan nan nan nan nan nan 292 nan nan nan nan
nan nan nan nan 243 248 249 249 249 nan nan nan nan nan nan nan 258 262 262 260 255 255 251 nan nan nan nan nan nan nan nan nan nan nan nan nan nan nan nan 285 290 289 nan
nan nan nan nan nan nan nan nan nan nan nan nan nan nan nan nan nan nan 266 264 260 252 nan nan nan nan nan nan nan nan nan nan nan nan nan nan nan nan nan nan 284 286 285
nan nan nan nan nan nan nan nan nan nan nan nan nan nan nan nan nan nan nan nan nan nan nan nan nan 238 nan nan nan nan nan nan nan nan nan nan nan nan nan nan 276 280 286
nan nan nan nan nan nan nan nan nan nan nan nan nan nan nan nan nan nan nan nan nan nan nan nan nan nan nan nan nan nan nan nan nan nan nan nan nan nan nan nan nan nan 282
nan nan nan nan nan nan nan nan nan nan nan nan nan nan nan nan nan nan nan nan nan nan nan nan nan nan nan nan nan nan nan nan nan nan nan nan nan nan nan nan nan nan nan
250 nan nan nan nan nan nan nan nan nan nan nan nan nan nan nan nan nan nan nan nan nan nan nan nan nan nan nan nan nan nan nan nan nan nan nan nan nan nan nan nan nan nan
245 249 253 251 248 248 nan nan nan nan nan nan nan nan nan nan nan 274 nan 276 nan nan nan nan nan nan nan nan nan nan nan nan nan nan nan nan nan nan nan nan nan nan nan
237 237 244 243 247 255 258 nan nan nan nan nan nan nan nan nan nan nan nan nan nan nan nan nan nan nan nan nan nan nan nan nan nan nan nan nan nan nan nan nan nan nan nan
231 nan nan 239 nan nan nan nan 256 nan nan nan nan nan nan nan nan nan nan nan nan nan nan nan nan nan nan nan nan nan nan nan nan nan nan nan nan nan nan nan nan nan nan
223 225 234 nan nan nan nan nan nan nan nan nan nan nan nan nan nan nan nan nan nan nan nan nan nan nan 246 254 nan nan 253 256 nan nan nan nan nan 271 267 270 nan nan nan
nan nan nan nan nan nan nan nan nan nan nan nan nan nan nan nan nan nan nan nan nan nan nan nan nan nan 252 255 257 255 255 nan nan nan nan nan nan nan nan nan nan nan nan